GFSFLT2_prec_pwat_021.txt.gz
Precipitable_Water
0.27 0.27 0.25 0.21 0.16 0.18 0.13 0.15 0.13 0.16 0.20 0.27 0.36 0.42 0.51 0.56 0.68 0.70 0.77 0.84 0.96 1.06 1.11 1.16 1.19 1.24 1.25 1.22 1.17 1.15 1.12 1.13
0.31 0.32 0.29 0.23 0.23 0.16 0.15 0.09 0.09 0.12 0.14 0.15 0.23 0.31 0.44 0.54 0.59 0.66 0.67 0.73 0.90 1.06 1.14 1.16 1.19 1.25 1.32 1.32 1.30 1.37 1.39 1.32
0.33 0.27 0.24 0.24 0.22 0.20 0.19 0.14 0.09 0.09 0.10 0.18 0.20 0.27 0.37 0.49 0.58 0.65 0.70 0.69 0.76 0.92 1.09 1.19 1.31 1.30 1.28 1.32 1.36 1.41 1.46 1.46
0.28 0.35 0.34 0.30 0.25 0.23 0.16 0.15 0.14 0.13 0.11 0.19 0.21 0.22 0.28 0.41 0.55 0.68 0.75 0.78 0.78 0.83 0.93 1.09 1.19 1.28 1.27 1.29 1.32 1.38 1.46 1.52
0.28 0.30 0.32 0.30 0.30 0.28 0.24 0.22 0.16 0.12 0.12 0.18 0.21 0.21 0.23 0.25 0.36 0.50 0.65 0.76 0.78 0.80 0.83 0.88 0.92 1.02 1.24 1.36 1.28 1.33 1.44 1.50
0.26 0.29 0.32 0.27 0.28 0.30 0.26 0.20 0.18 0.17 0.17 0.20 0.19 0.21 0.21 0.22 0.26 0.36 0.46 0.58 0.72 0.74 0.75 0.80 0.87 0.92 1.02 1.20 1.39 1.39 1.38 1.42
0.36 0.37 0.35 0.31 0.29 0.28 0.25 0.26 0.21 0.21 0.20 0.23 0.24 0.21 0.21 0.24 0.25 0.28 0.36 0.45 0.54 0.58 0.63 0.69 0.76 0.88 1.06 1.11 1.28 1.39 1.38 1.36
0.32 0.35 0.34 0.31 0.32 0.31 0.29 0.27 0.25 0.24 0.23 0.29 0.28 0.28 0.24 0.23 0.23 0.24 0.28 0.33 0.40 0.47 0.53 0.61 0.72 0.87 1.04 1.08 1.18 1.33 1.34 1.33
0.27 0.34 0.32 0.26 0.29 0.31 0.31 0.33 0.29 0.22 0.26 0.30 0.27 0.26 0.24 0.25 0.26 0.25 0.26 0.27 0.30 0.37 0.45 0.52 0.59 0.70 0.98 1.08 1.25 1.28 1.30 1.43
0.27 0.30 0.21 0.28 0.35 0.37 0.33 0.32 0.31 0.28 0.29 0.31 0.30 0.29 0.30 0.29 0.28 0.29 0.30 0.31 0.32 0.34 0.41 0.48 0.60 0.72 0.93 1.18 1.24 1.27 1.35 1.36
0.23 0.24 0.27 0.29 0.33 0.39 0.38 0.31 0.45 0.42 0.37 0.33 0.34 0.34 0.31 0.33 0.33 0.33 0.35 0.35 0.36 0.37 0.37 0.47 0.54 0.71 0.87 1.04 1.18 1.27 1.29 1.28
0.26 0.19 0.18 0.29 0.38 0.53 0.54 0.28 0.54 0.55 0.50 0.50 0.36 0.27 0.30 0.34 0.34 0.34 0.37 0.39 0.39 0.38 0.41 0.49 0.54 0.71 0.81 0.91 1.00 1.04 1.19 1.24
0.23 0.22 0.26 0.34 0.47 0.68 0.32 0.34 0.62 0.64 0.59 0.58 0.50 0.39 0.42 0.50 0.43 0.47 0.47 0.47 0.45 0.46 0.45 0.50 0.62 0.69 0.74 0.85 0.87 1.01 1.16 1.23
0.24 0.21 0.18 0.34 0.39 0.37 0.59 0.69 0.67 0.70 0.69 0.64 0.67 0.69 0.55 0.57 0.58 0.61 0.61 0.64 0.61 0.57 0.55 0.60 0.68 0.73 0.75 0.87 1.07 1.17 1.21 1.22
0.24 0.23 0.31 0.39 0.43 0.61 0.67 0.61 0.71 0.73 0.84 0.80 0.73 0.72 0.70 0.65 0.70 0.75 0.76 0.75 0.83 0.73 0.65 0.66 0.72 0.79 0.76 0.91 1.12 1.20 1.25 1.27
0.27 0.31 0.36 0.36 0.44 0.61 0.66 0.65 0.78 0.88 1.00 0.97 0.86 0.86 0.81 0.80 0.80 0.80 0.83 0.81 0.84 0.84 0.79 0.76 0.84 0.86 0.89 0.95 1.07 1.11 1.11 1.17
0.34 0.35 0.33 0.37 0.42 0.58 0.62 0.64 0.74 0.90 1.14 1.14 1.03 0.95 0.93 0.90 0.94 0.97 0.91 0.93 0.96 0.96 0.90 0.86 0.92 0.91 0.90 0.88 0.88 0.82 0.89 0.97
0.26 0.38 0.39 0.41 0.55 0.67 0.65 0.73 0.83 0.96 1.09 1.24 1.19 1.14 1.15 1.10 1.14 1.13 1.07 1.08 1.04 1.04 0.98 0.95 0.92 0.90 0.92 0.96 0.91 0.83 0.77 0.79
0.41 0.49 0.48 0.54 0.55 0.63 0.72 0.84 0.97 1.13 1.28 1.32 1.34 1.31 1.30 1.29 1.27 1.22 1.15 1.08 1.01 0.98 0.99 1.00 1.00 0.99 1.06 1.08 1.06 0.99 0.93 0.95

GFSFLT2_prec_pwat_024.txt.gz
Precipitable_Water
0.29 0.29 0.27 0.23 0.17 0.18 0.16 0.19 0.16 0.16 0.21 0.30 0.38 0.42 0.50 0.57 0.61 0.65 0.82 0.98 0.98 1.04 1.14 1.19 1.17 1.14 1.14 1.10 1.02 1.07 1.09 1.12
0.31 0.30 0.28 0.25 0.24 0.17 0.15 0.12 0.11 0.12 0.15 0.19 0.24 0.31 0.40 0.49 0.57 0.63 0.73 0.86 0.95 1.02 1.09 1.16 1.20 1.28 1.35 1.35 1.23 1.14 1.16 1.18
0.33 0.25 0.23 0.24 0.23 0.21 0.19 0.15 0.12 0.12 0.13 0.21 0.22 0.31 0.35 0.45 0.56 0.62 0.75 0.78 0.80 0.92 1.03 1.16 1.32 1.34 1.34 1.40 1.38 1.36 1.35 1.30
0.30 0.34 0.32 0.29 0.25 0.23 0.16 0.16 0.16 0.16 0.15 0.22 0.21 0.25 0.35 0.40 0.51 0.62 0.72 0.76 0.77 0.83 0.95 1.10 1.21 1.35 1.35 1.33 1.35 1.38 1.44 1.48
0.32 0.35 0.35 0.28 0.29 0.27 0.24 0.21 0.18 0.15 0.15 0.26 0.25 0.26 0.35 0.43 0.50 0.59 0.71 0.80 0.81 0.78 0.84 0.96 1.12 1.25 1.32 1.43 1.42 1.44 1.47 1.47
0.29 0.32 0.36 0.30 0.30 0.29 0.27 0.20 0.19 0.21 0.20 0.24 0.22 0.26 0.29 0.31 0.42 0.50 0.64 0.66 0.72 0.75 0.83 0.91 0.92 1.03 1.08 1.13 1.29 1.48 1.47 1.43
0.43 0.42 0.38 0.34 0.31 0.31 0.28 0.28 0.22 0.23 0.25 0.26 0.29 0.27 0.30 0.31 0.33 0.41 0.52 0.58 0.63 0.69 0.84 0.89 0.84 0.92 1.04 1.08 1.15 1.26 1.43 1.48
0.36 0.40 0.39 0.33 0.35 0.34 0.32 0.32 0.30 0.29 0.28 0.35 0.36 0.35 0.30 0.31 0.30 0.28 0.34 0.47 0.51 0.59 0.66 0.71 0.78 0.85 0.93 1.03 1.10 1.27 1.31 1.37
0.30 0.37 0.36 0.30 0.33 0.34 0.34 0.35 0.33 0.27 0.33 0.37 0.35 0.35 0.32 0.29 0.27 0.26 0.28 0.31 0.40 0.50 0.59 0.66 0.72 0.78 0.80 0.91 1.07 1.23 1.23 1.37
0.31 0.35 0.23 0.32 0.41 0.40 0.36 0.36 0.37 0.35 0.36 0.37 0.38 0.40 0.40 0.37 0.33 0.30 0.29 0.30 0.34 0.43 0.47 0.53 0.63 0.66 0.85 0.90 0.96 1.14 1.24 1.30
0.28 0.28 0.32 0.34 0.37 0.37 0.37 0.35 0.40 0.40 0.42 0.42 0.43 0.41 0.38 0.40 0.37 0.34 0.33 0.35 0.38 0.40 0.45 0.49 0.55 0.60 0.67 0.83 0.92 1.11 1.21 1.25
0.29 0.25 0.22 0.33 0.38 0.54 0.52 0.36 0.52 0.60 0.56 0.59 0.64 0.40 0.39 0.42 0.41 0.40 0.39 0.42 0.41 0.41 0.43 0.44 0.46 0.54 0.65 0.73 0.84 0.93 1.18 1.34
0.27 0.25 0.28 0.37 0.52 0.70 0.35 0.53 0.78 0.73 0.73 0.69 0.60 0.64 0.71 0.73 0.64 0.61 0.56 0.51 0.53 0.49 0.46 0.47 0.55 0.53 0.54 0.71 0.76 0.97 1.23 1.29
0.26 0.24 0.22 0.36 0.38 0.40 0.67 0.82 0.79 0.78 0.81 0.77 0.78 0.82 0.77 0.79 0.76 0.66 0.65 0.64 0.65 0.53 0.56 0.67 0.71 0.65 0.60 0.67 0.89 1.07 1.16 1.19
0.28 0.26 0.33 0.40 0.39 0.51 0.57 0.64 0.74 0.66 0.69 0.74 0.73 0.79 0.85 0.84 0.82 0.79 0.83 0.85 0.81 0.75 0.81 0.84 0.85 0.85 0.74 0.81 0.98 1.10 1.15 1.16
0.28 0.31 0.38 0.42 0.43 0.47 0.55 0.58 0.66 0.70 0.68 0.73 0.68 0.79 0.90 0.92 0.91 0.92 0.90 0.85 0.89 0.93 0.90 0.87 0.98 1.04 1.05 1.04 1.07 1.07 1.10 1.22
0.33 0.36 0.34 0.37 0.39 0.44 0.49 0.60 0.67 0.70 0.74 0.78 0.74 0.85 0.98 1.00 0.97 0.95 0.91 0.94 0.99 0.99 1.00 0.97 0.98 0.96 1.00 1.00 1.01 1.05 1.06 1.08
0.27 0.36 0.37 0.38 0.43 0.54 0.55 0.55 0.61 0.64 0.65 0.79 0.87 0.97 1.10 1.05 1.08 1.08 1.08 1.11 1.09 1.10 1.09 1.07 1.08 1.07 1.09 1.08 1.04 0.95 0.87 0.85
0.41 0.48 0.49 0.50 0.53 0.49 0.46 0.45 0.51 0.63 0.74 0.82 0.97 1.09 1.12 1.08 1.17 1.18 1.17 1.17 1.14 1.13 1.17 1.18 1.13 1.11 1.14 1.17 1.10 1.02 0.97 0.98

GFSFLT2_prec_pwat_030.txt.gz
Precipitable_Water
0.36 0.32 0.31 0.27 0.19 0.23 0.18 0.19 0.16 0.17 0.20 0.27 0.36 0.46 0.59 0.62 0.72 0.76 0.84 1.02 1.21 1.24 1.22 1.15 1.15 1.11 1.04 1.05 1.09 1.13 1.14 1.21
0.36 0.37 0.32 0.29 0.30 0.20 0.19 0.15 0.15 0.17 0.19 0.19 0.25 0.34 0.47 0.54 0.60 0.70 0.80 0.94 1.15 1.23 1.21 1.17 1.16 1.15 1.09 1.07 1.02 1.00 1.09 1.12
0.39 0.32 0.28 0.27 0.29 0.27 0.22 0.18 0.18 0.22 0.21 0.29 0.29 0.32 0.41 0.46 0.53 0.65 0.78 0.95 1.11 1.25 1.20 1.22 1.20 1.24 1.09 1.07 1.07 1.05 1.04 1.02
0.39 0.40 0.39 0.32 0.28 0.31 0.20 0.18 0.20 0.25 0.30 0.35 0.37 0.36 0.40 0.46 0.52 0.64 0.72 0.94 1.07 1.16 1.18 1.28 1.20 1.25 1.17 1.13 1.14 1.20 1.22 1.18
0.39 0.42 0.39 0.32 0.31 0.32 0.32 0.25 0.20 0.20 0.25 0.38 0.40 0.45 0.47 0.44 0.56 0.60 0.69 0.76 0.98 1.17 1.15 1.19 1.17 1.23 1.22 1.27 1.23 1.38 1.48 1.45
0.34 0.36 0.40 0.34 0.34 0.33 0.32 0.24 0.24 0.23 0.32 0.37 0.38 0.37 0.40 0.43 0.53 0.57 0.65 0.71 0.91 1.07 1.22 1.21 1.19 1.22 1.27 1.34 1.45 1.50 1.57 1.57
0.43 0.46 0.47 0.37 0.34 0.33 0.28 0.31 0.24 0.28 0.29 0.39 0.39 0.42 0.46 0.51 0.56 0.61 0.64 0.76 0.90 1.02 1.22 1.25 1.18 1.20 1.30 1.41 1.49 1.56 1.55 1.59
0.46 0.50 0.54 0.46 0.38 0.35 0.33 0.31 0.33 0.32 0.34 0.43 0.48 0.46 0.52 0.53 0.56 0.60 0.68 0.79 0.87 0.96 1.11 1.21 1.36 1.20 1.21 1.28 1.41 1.53 1.53 1.48
0.41 0.54 0.52 0.45 0.43 0.39 0.35 0.34 0.34 0.30 0.38 0.45 0.46 0.46 0.46 0.44 0.51 0.54 0.59 0.63 0.69 0.83 0.91 0.98 1.10 1.24 1.15 1.19 1.24 1.37 1.40 1.40
0.43 0.53 0.41 0.50 0.55 0.50 0.40 0.37 0.37 0.39 0.43 0.51 0.53 0.54 0.54 0.52 0.48 0.50 0.54 0.56 0.58 0.61 0.69 0.74 0.86 1.05 1.15 1.25 1.23 1.15 1.28 1.37
0.42 0.48 0.51 0.53 0.54 0.49 0.45 0.42 0.44 0.41 0.46 0.54 0.56 0.58 0.56 0.57 0.54 0.52 0.52 0.55 0.58 0.59 0.58 0.63 0.73 0.90 0.98 0.98 1.10 1.07 1.07 1.19
0.43 0.43 0.39 0.53 0.57 0.60 0.56 0.43 0.70 0.57 0.54 0.53 0.53 0.46 0.68 0.91 0.94 0.87 0.89 0.86 0.82 0.79 0.71 0.62 0.68 0.70 0.78 0.98 1.07 1.12 1.13 1.15
0.40 0.40 0.50 0.64 0.62 0.62 0.45 0.63 0.86 0.76 0.66 0.60 0.65 0.84 0.99 0.98 0.97 0.97 0.90 0.87 0.85 0.79 0.72 0.75 0.79 0.75 0.76 0.75 0.83 0.99 1.06 1.12
0.38 0.38 0.42 0.65 0.66 0.59 0.83 0.89 0.85 0.85 0.84 0.81 0.84 0.90 0.97 1.01 0.97 0.98 0.96 0.95 0.87 0.79 0.72 0.81 0.80 0.70 0.64 0.66 0.75 0.88 1.00 1.04
0.41 0.41 0.58 0.63 0.63 0.73 0.73 0.80 0.81 0.82 0.79 0.81 0.87 0.89 0.98 0.98 1.00 1.13 1.14 1.08 1.11 0.99 0.95 1.03 1.00 0.96 0.81 0.87 0.93 0.85 1.02 0.98
0.44 0.48 0.52 0.57 0.61 0.62 0.66 0.67 0.76 0.75 0.77 0.89 0.89 0.90 0.89 0.97 0.97 1.18 1.35 1.22 1.08 1.08 1.09 1.25 1.30 1.27 1.15 1.16 1.10 1.02 0.99 1.06
0.43 0.45 0.50 0.54 0.55 0.56 0.60 0.63 0.65 0.72 0.78 0.86 0.86 0.84 0.86 0.91 0.99 1.14 1.26 1.29 1.27 1.25 1.26 1.25 1.26 1.23 1.23 1.22 1.25 1.14 1.10 1.13
0.35 0.46 0.49 0.52 0.57 0.56 0.53 0.57 0.60 0.64 0.73 0.85 0.82 0.76 0.76 0.91 1.06 1.02 1.01 1.07 1.22 1.33 1.28 1.24 1.20 1.16 1.20 1.20 1.24 1.25 1.23 1.26
0.46 0.51 0.53 0.56 0.58 0.60 0.59 0.59 0.60 0.62 0.66 0.72 0.72 0.70 0.69 0.80 1.00 1.07 1.05 1.03 1.02 1.19 1.28 1.28 1.23 1.20 1.23 1.24 1.25 1.27 1.24 1.28

GFSFLT2_prec_pwat_033.txt.gz
Precipitable_Water
0.53 0.49 0.37 0.28 0.19 0.23 0.19 0.21 0.18 0.17 0.19 0.28 0.36 0.45 0.50 0.69 0.88 1.05 1.13 1.15 1.18 1.24 1.31 1.25 1.19 1.13 1.11 1.13 1.17 1.21 1.20 1.18
0.51 0.60 0.41 0.31 0.32 0.19 0.19 0.15 0.14 0.17 0.16 0.13 0.18 0.27 0.43 0.50 0.73 0.88 1.10 1.09 1.15 1.22 1.32 1.23 1.17 1.14 1.17 1.16 1.12 1.15 1.20 1.18
0.48 0.44 0.37 0.28 0.29 0.26 0.21 0.21 0.17 0.16 0.18 0.24 0.25 0.25 0.37 0.48 0.56 0.70 0.83 1.07 1.12 1.25 1.31 1.29 1.14 1.16 1.15 1.12 1.12 1.16 1.14 1.10
0.34 0.43 0.43 0.38 0.29 0.29 0.20 0.17 0.19 0.19 0.21 0.35 0.35 0.30 0.32 0.47 0.50 0.70 0.81 1.02 1.13 1.20 1.28 1.30 1.13 1.11 1.16 1.09 1.02 1.04 1.10 1.10
0.32 0.38 0.41 0.35 0.32 0.31 0.31 0.26 0.19 0.20 0.24 0.38 0.37 0.35 0.34 0.39 0.49 0.59 0.77 0.97 1.07 1.17 1.26 1.27 1.10 1.06 1.18 1.09 1.07 1.03 1.10 1.14
0.31 0.31 0.35 0.34 0.35 0.33 0.32 0.25 0.19 0.23 0.27 0.38 0.41 0.37 0.37 0.43 0.47 0.50 0.66 0.95 1.06 1.13 1.23 1.25 1.11 0.99 1.19 1.24 1.24 1.25 1.25 1.22
0.43 0.40 0.42 0.44 0.37 0.36 0.29 0.31 0.24 0.25 0.31 0.39 0.43 0.45 0.49 0.52 0.50 0.55 0.59 0.82 1.03 1.07 1.15 1.23 1.23 1.05 1.19 1.31 1.34 1.33 1.34 1.37
0.40 0.43 0.47 0.47 0.42 0.39 0.33 0.32 0.32 0.29 0.29 0.41 0.48 0.51 0.50 0.51 0.51 0.59 0.67 0.76 0.99 1.11 1.15 1.20 1.24 1.23 1.06 1.25 1.36 1.47 1.45 1.40
0.35 0.49 0.53 0.48 0.48 0.41 0.38 0.36 0.33 0.28 0.34 0.49 0.48 0.48 0.48 0.52 0.53 0.59 0.63 0.72 0.89 1.05 1.27 1.33 1.41 1.44 1.33 1.20 1.31 1.38 1.39 1.51
0.42 0.51 0.40 0.52 0.60 0.56 0.42 0.41 0.38 0.37 0.46 0.49 0.56 0.66 0.62 0.57 0.55 0.60 0.64 0.68 0.75 0.83 0.92 1.13 1.38 1.58 1.56 1.40 1.30 1.27 1.29 1.37
0.45 0.46 0.49 0.56 0.64 0.58 0.46 0.54 0.67 0.57 0.51 0.60 0.69 0.66 0.73 0.80 0.77 0.77 0.78 0.79 0.80 0.84 0.90 0.93 0.99 1.20 1.60 1.55 1.37 1.27 1.26 1.30
0.49 0.45 0.42 0.60 0.68 0.69 0.65 0.53 0.78 0.78 0.72 0.65 0.67 0.56 0.72 0.89 0.86 0.84 0.87 0.86 0.82 0.82 0.87 0.91 0.93 0.96 1.08 1.19 1.32 1.29 1.27 1.30
0.46 0.46 0.60 0.73 0.73 0.76 0.50 0.67 0.84 0.84 0.86 0.86 0.77 0.89 0.96 0.99 0.95 0.98 0.93 0.90 0.86 0.86 0.86 0.89 1.00 0.95 0.93 1.04 1.04 1.14 1.27 1.30
0.45 0.44 0.49 0.77 0.74 0.66 0.77 0.82 0.84 0.86 0.93 0.88 0.92 0.99 1.05 1.06 1.09 1.09 1.02 1.00 0.96 0.85 0.87 0.91 0.87 0.88 0.84 0.86 1.01 1.12 1.22 1.28
0.51 0.54 0.67 0.83 0.78 0.73 0.77 0.80 0.79 0.80 0.88 0.94 0.88 0.88 0.98 1.07 1.15 1.16 1.16 1.15 1.14 1.02 1.01 1.17 1.17 1.04 0.83 0.92 1.01 1.07 0.99 0.95
0.51 0.58 0.62 0.72 0.79 0.79 0.72 0.76 0.81 0.78 0.80 0.89 0.85 0.87 0.89 1.02 1.17 1.18 1.19 1.16 1.19 1.15 1.24 1.26 1.32 1.24 1.12 1.05 1.01 1.01 0.90 0.96
0.46 0.57 0.60 0.65 0.75 0.79 0.73 0.78 0.77 0.77 0.74 0.77 0.86 0.84 0.87 0.86 1.02 1.06 1.08 1.07 1.12 1.14 1.29 1.28 1.35 1.38 1.33 1.24 1.20 1.08 1.07 1.14
0.41 0.53 0.59 0.60 0.69 0.76 0.76 0.76 0.80 0.78 0.74 0.76 0.80 0.80 0.83 0.81 0.93 0.98 0.95 0.91 0.83 0.94 1.20 1.29 1.27 1.25 1.27 1.31 1.31 1.28 1.24 1.24
0.42 0.53 0.55 0.59 0.63 0.70 0.73 0.76 0.76 0.79 0.78 0.76 0.81 0.81 0.79 0.80 0.84 0.96 0.92 0.95 1.00 1.06 1.15 1.24 1.24 1.22 1.24 1.26 1.25 1.32 1.30 1.33